[[{"header":{"parameterUnit":"m.s-1","parameterCategory":1,"la1":30.2991,"la2":30.254,"lo1":-89.0895,"lo2":-89.0444,"dy":0.0017,"dx":0.0017,"nx":28,"ny":28,"refTime":"2025-04-03T03:00:00:Z","depth":0,"parameterNumber":2,"parameterNumberName":"U-component_of_WINDS"},"data":[0,0,0,0,0,0,0,0,0,0,0,0,0,0,0,0,0,0,0,0,0,0,0,0,0,0,0,0,0,0,0,0,0,0,0,0,0,0,0,0,0,0,0,0,0,0,0,0,0,0,0,0,0,0,0,0,0,0,-5.2311,-5.2313,0,-5.2472,-5.2474,-5.2475,-5.2503,-5.2502,-5.25,-5.2499,-5.2662,-5.2668,-5.2673,0,0,0,0,0,0,0,0,0,0,0,0,0,-5.2027,-5.2032,-5.2311,-5.2313,-5.2315,-5.2472,-5.2474,-5.2476,-5.2503,-5.2502,-5.25,-5.2498,-5.266,-5.2667,-5.2674,0,0,0,0,0,0,0,0,0,0,0,0,0,-5.2165,-5.2034,-5.231,-5.2347,-5.2352,-5.2471,-5.2474,-5.2477,-5.2504,-5.2502,-5.25,-5.2498,-5.2658,-5.2666,-5.2675,-5.2767,0,0,-5.27,-5.2704,0,0,0,0,0,0,0,0,-5.2157,-5.2176,-5.234,-5.2345,-5.2351,-5.2465,-5.2434,-5.2574,-5.2504,-5.2446,-5.2499,-5.2497,-5.2598,-5.2612,-5.2646,-5.2775,-5.2782,-5.2701,-5.2706,-5.271,-5.2712,0,0,0,0,0,0,0,-5.2148,-5.2169,-5.2374,-5.2342,-5.2349,-5.2356,-5.2373,-5.246,-5.2532,-5.2451,-5.2453,-5.2472,-5.2601,-5.2638,-5.265,-5.2784,-5.2701,-5.2708,-5.2714,-5.2717,-5.2998,-5.3001,0,0,0,0,0,0,-5.2132,-5.2161,-5.2369,-5.2379,-5.2247,-5.2363,-5.2382,-5.2431,-5.2531,-5.2544,-5.2474,-5.2473,-5.2625,-5.264,-5.2656,-5.2771,-5.271,-5.2718,-5.2723,-5.2996,-5.2999,-5.3002,0,0,0,0,0,0,-5.2126,-5.215,-5.2363,-5.2271,-5.2298,-5.237,-5.2424,-5.2435,-5.2472,-5.2548,-5.2561,-5.2498,-5.2624,-5.2644,-5.274,-5.2777,-5.2722,-5.2729,-5.2993,-5.2997,-5.3,-5.3001,0,0,0,0,0,0,-5.2117,-5.2148,-5.2183,-5.2271,-5.2303,-5.2444,-5.2426,-5.2439,-5.2487,-5.2487,-5.2575,-5.2587,-5.2624,-5.2727,-5.2748,-5.2787,-5.2736,-5.299,-5.2995,-5.2999,-5.2998,-5.3004,-5.3009,0,0,0,0,0,-5.2107,-5.2177,-5.2185,-5.221,-5.2349,-5.2446,-5.2464,-5.2505,-5.2489,-5.2526,-5.2575,-5.2584,-5.277,-5.2737,-5.2761,-5.2803,-5.2988,-5.2993,-5.2999,-5.2995,-5.3003,-5.3009,0,0,0,0,0,0,-5.209,-5.2189,-5.2199,-5.2299,-5.2364,-5.245,-5.2497,-5.2512,-5.2582,-5.2579,-5.2627,-5.2646,-5.2739,-5.2781,-5.2742,-5.2898,-5.2878,-5.2888,-5.2867,-5.2875,-5.288,-5.2867,-5.2743,0,0,0,0,0,-5.2098,-5.2168,-5.2251,-5.2331,-5.2364,-5.2425,-5.2468,-5.2495,-5.2563,-5.2591,-5.2647,-5.2713,-5.2786,-5.2833,-5.2905,-5.3005,-5.3024,-5.3046,-5.3052,-5.3057,-5.3064,-5.312,-5.3131,-5.3019,-5.3019,-5.3019,0,0,-5.2115,-5.2178,-5.2219,-5.233,-5.2383,-5.2454,-5.2448,-5.2523,-5.2577,-5.2602,-5.2695,-5.274,-5.2817,-5.2915,-5.2961,-5.2952,-5.31,-5.3064,-5.3067,-5.3072,-5.3127,-5.3137,-5.3147,-5.3023,-5.3023,-5.3022,0,0,-5.2181,-5.2237,-5.231,-5.2364,-5.2445,-5.2486,-5.2503,-5.2589,-5.2619,-5.2714,-5.2735,-5.2799,-5.2925,-5.2979,-5.3022,-5.3113,-5.3124,-5.3135,-5.3164,-5.3219,-5.3227,-5.3235,-5.3266,-5.3277,-5.3143,-5.3143,-5.3143,0,-5.2192,-5.23,-5.2345,-5.242,-5.2468,-5.2497,-5.2571,-5.2621,-5.2721,-5.2754,-5.2744,-5.2903,-5.2957,-5.3068,-5.309,-5.3125,-5.3146,-5.3124,-5.3223,-5.3231,-5.3239,-5.3269,-5.3281,-5.3144,-5.3144,-5.3144,-5.3144,0,-5.2308,-5.2384,-5.2433,-5.253,-5.2584,-5.2658,-5.2715,-5.2764,-5.2787,-5.2829,-5.2926,-5.2992,-5.3078,-5.3107,-5.3129,-5.3222,-5.3214,-5.3213,-5.3193,-5.325,-5.3279,-5.3291,-5.3145,-5.3145,-5.3145,-5.3144,0,0,-5.2365,-5.2488,-5.2505,-5.255,-5.2643,-5.2702,-5.2778,-5.2863,-5.2904,-5.2974,-5.3038,-5.3145,-5.3145,-5.3195,-5.3224,-5.3272,-5.3339,-5.3265,-5.3268,-5.3275,-5.3444,-5.3442,-5.3455,-5.3348,-5.3351,-5.3352,-5.3437,0,-5.2442,-5.2578,-5.2622,-5.2736,-5.2806,-5.2835,-5.2902,-5.2966,-5.3008,-5.3074,-5.3121,-5.3195,-5.319,-5.3221,-5.327,-5.332,-5.3373,-5.3315,-5.3407,-5.341,-5.3384,-5.347,-5.3469,-5.3545,-5.3449,-5.3451,-5.3452,0,-5.2548,-5.262,-5.274,-5.2826,-5.2857,-5.2915,-5.2997,-5.306,-5.3134,-5.3162,-5.3219,-5.3245,-5.3326,-5.3304,-5.3416,-5.3376,-5.3417,-5.3448,-5.3452,-5.346,-5.3432,-5.3479,-5.3571,-5.3581,-5.3471,-5.3469,-5.3468,0,-5.2575,-5.2702,-5.2791,-5.2829,-5.2931,-5.2971,-5.3016,-5.3088,-5.3137,-5.3209,-5.3241,-5.3321,-5.3365,-5.3426,-5.3474,-5.3453,-5.3582,-5.3563,-5.3606,-5.3604,-5.3629,-5.3626,-5.3726,-5.3659,-5.3659,-5.3659,-5.3659,0,-5.2654,-5.2726,-5.2805,-5.2859,-5.2941,-5.2992,-5.3072,-5.3118,-5.3183,-5.3247,-5.3278,-5.3337,-5.3397,-5.3465,-5.3503,-5.3589,-5.3609,-5.3633,-5.3642,-5.3629,-5.3626,-5.3654,-5.3649,-5.3662,-5.3661,-5.3661,-5.366,0,-5.2697,-5.2753,-5.2851,-5.2941,-5.2965,-5.3021,-5.3098,-5.3152,-5.3197,-5.3277,-5.3299,-5.3369,-5.345,-5.3505,-5.3608,-5.3634,-5.3728,-5.3737,-5.3702,-5.3706,-5.3745,-5.3739,-5.3865,-5.3883,-5.3806,-5.3807,-5.3807,0,-5.2742,-5.2799,-5.2895,-5.294,-5.2985,-5.3058,-5.3108,-5.3161,-5.3212,-5.3302,-5.3345,-5.3428,-5.3498,-5.3626,-5.3686,-5.3766,-5.3775,-5.3814,-5.3787,-5.3773,-5.3774,-5.3769,-5.3774,-5.3817,-5.3818,-5.3818,-5.3819,0,-5.2817,-5.2842,-5.2913,-5.2994,-5.3053,-5.312,-5.3187,-5.3222,-5.3287,-5.3343,-5.3426,-5.348,-5.3587,-5.3669,-5.3755,-5.3801,-5.382,-5.3827,-5.3841,-5.3827,-5.3804,-5.3815,-5.3711,-5.3823,-5.3823,-5.3822,-5.3822,-5.3822,-5.2861,-5.2913,-5.2989,-5.3067,-5.3123,-5.3185,-5.324,-5.3293,-5.3364,-5.3455,-5.3482,-5.3569,-5.3644,-5.3761,-5.3809,-5.3878,-5.3874,-5.3894,-5.3899,-5.3902,-5.3902,-5.3795,-5.3894,-5.3894,-5.3894,-5.3894,-5.3894,0,-5.2935,-5.2986,-5.3058,-5.3151,-5.3213,-5.3228,-5.3303,-5.3354,-5.343,-5.3498,-5.3566,-5.3663,-5.3743,-5.3811,-5.3894,-5.3936,-5.3947,-5.3956,-5.3952,-5.3963,-5.3901,-5.388,-5.3946,-5.3946,-5.3946,-5.3946,-5.3946,-5.3946,-5.2981,-5.3069,-5.3104,-5.322,-5.3271,-5.3356,-5.3398,-5.3456,-5.351,-5.3617,-5.3684,-5.3728,-5.3796,-5.3885,-5.396,-5.3978,-5.4006,-5.4013,-5.4032,-5.3973,-5.3967,-5.3961,-5.3941,-5.4019,-5.4019,-5.4088,-5.4089,-5.4089]},{"header":{"parameterUnit":"m.s-1","parameterCategory":1,"la1":30.2991,"la2":30.254,"lo1":-89.0895,"lo2":-89.0444,"dy":0.0017,"dx":0.0017,"nx":28,"ny":28,"refTime":"2025-04-03T03:00:00:Z","depth":0,"parameterNumber":3,"parameterNumberName":"V-component_of_WINDS"},"data":[0,0,0,0,0,0,0,0,0,0,0,0,0,0,0,0,0,0,0,0,0,0,0,0,0,0,0,0,0,0,0,0,0,0,0,0,0,0,0,0,0,0,0,0,0,0,0,0,0,0,0,0,0,0,0,0,0,0,3.9673,3.9674,0,3.9782,3.9783,3.9785,3.98,3.9799,3.9798,3.9797,3.9907,3.9911,3.9915,0,0,0,0,0,0,0,0,0,0,0,0,0,3.9476,3.948,3.9672,3.9674,3.9675,3.9782,3.9783,3.9785,3.98,3.9799,3.9797,3.9796,3.9906,3.991,3.9915,0,0,0,0,0,0,0,0,0,0,0,0,0,3.9571,3.9481,3.9672,3.9696,3.9699,3.9782,3.9784,3.9785,3.98,3.9799,3.9797,3.9796,3.9904,3.991,3.9916,3.9982,0,0,3.9934,3.9936,0,0,0,0,0,0,0,0,3.9566,3.9578,3.9691,3.9694,3.9698,3.9776,3.9755,3.9851,3.9801,3.9762,3.9797,3.9795,3.9865,3.9874,3.9897,3.9987,3.9992,3.9934,3.9938,3.994,3.9942,0,0,0,0,0,0,0,3.9559,3.9574,3.9716,3.9692,3.9697,3.9701,3.9713,3.9773,3.982,3.9765,3.9766,3.9779,3.9866,3.9892,3.99,3.9994,3.9934,3.9939,3.9943,3.9945,4.0148,4.0149,0,0,0,0,0,0,3.9549,3.9568,3.9712,3.9719,3.9627,3.9706,3.9719,3.9752,3.982,3.9828,3.978,3.9779,3.9883,3.9893,3.9904,3.9989,3.994,3.9946,3.9949,4.0146,4.0148,4.015,0,0,0,0,0,0,3.9544,3.9561,3.9708,3.9644,3.9663,3.9711,3.9748,3.9755,3.9781,3.9831,3.984,3.9798,3.9882,3.9896,3.9964,3.9993,3.9948,3.9953,4.0144,4.0146,4.0149,4.0158,0,0,0,0,0,0,3.9539,3.956,3.9585,3.9645,3.9666,3.9766,3.975,3.9758,3.9791,3.9791,3.985,3.9858,3.9882,3.9955,3.9969,4.0,3.9958,4.0141,4.0145,4.0148,4.0155,4.016,4.0165,0,0,0,0,0,3.9532,3.9582,3.9586,3.9604,3.9699,3.9767,3.978,3.9806,3.9793,3.982,3.9853,3.9856,3.9987,3.9962,3.9978,4.0011,4.0139,4.0144,4.0148,4.0153,4.0159,4.0165,0,0,0,0,0,0,3.9523,3.959,3.9596,3.9667,3.9711,3.977,3.9804,3.9812,3.986,3.9858,3.9888,3.9901,3.9969,3.9996,3.9967,4.0081,4.0062,4.007,4.006,4.0067,4.0072,4.0064,3.9963,0,0,0,0,0,3.953,3.958,3.9635,3.9693,3.9715,3.9756,3.9786,3.9803,3.985,3.9868,3.9906,3.9951,4.0003,4.0036,4.0086,4.0159,4.0173,4.019,4.0195,4.0199,4.0206,4.0249,4.0258,4.0164,4.0164,4.0164,0,0,3.9544,3.9586,3.9616,3.9692,3.9729,3.978,3.9771,3.9825,3.9864,3.9876,3.9944,3.9973,4.0026,4.0097,4.0131,4.0123,4.0235,4.0204,4.0207,4.0212,4.0254,4.0263,4.0271,4.0167,4.0166,4.0166,0,0,3.9596,3.9632,3.9686,3.9723,3.9779,3.9806,3.9819,3.9877,3.9898,3.9966,3.9978,4.0024,4.0111,4.015,4.018,4.025,4.0256,4.0265,4.0292,4.0334,4.0342,4.0348,4.0376,4.0385,4.0272,4.0272,4.0272,0,3.9606,3.9684,3.9712,3.9767,3.9801,3.9816,3.9872,3.9906,3.9975,3.9999,3.9989,4.0102,4.0138,4.022,4.0238,4.0261,4.0278,4.0259,4.0338,4.0345,4.0352,4.0378,4.0388,4.0273,4.0272,4.0272,4.0272,0,3.9695,3.9749,3.9785,3.9854,3.9892,3.9946,3.9984,4.0019,4.0033,4.0061,4.0132,4.0177,4.0237,4.0258,4.0271,4.0343,4.0337,4.0332,4.0314,4.0361,4.0387,4.0397,4.0274,4.0274,4.0273,4.0273,0,0,3.9744,3.9829,3.9842,3.9875,3.9939,3.9982,4.0037,4.0098,4.0129,4.0177,4.0226,4.0301,4.0298,4.0333,4.0351,4.0388,4.0444,4.038,4.0381,4.0392,4.0529,4.0533,4.0544,4.0448,4.045,4.0452,4.0525,0,3.9805,3.9906,3.9934,4.002,4.0072,4.0088,4.0138,4.0183,4.0211,4.026,4.0291,4.0345,4.0336,4.0358,4.0395,4.0429,4.0472,4.0424,4.0495,4.0497,4.0483,4.0557,4.0561,4.0628,4.0535,4.0536,4.0538,0,3.989,3.9941,4.0033,4.0093,4.0116,4.016,4.0219,4.0265,4.0317,4.0335,4.0376,4.0392,4.0452,4.043,4.0515,4.0482,4.0512,4.0534,4.0537,4.0546,4.0521,4.057,4.065,4.0661,4.0553,4.0552,4.0551,0,3.9919,4.0011,4.0079,4.0106,4.0177,4.0208,4.0239,4.029,4.0326,4.0378,4.0402,4.0459,4.0491,4.0536,4.0567,4.0548,4.065,4.063,4.0668,4.0667,4.0689,4.0688,4.0778,4.0706,4.0706,4.0706,4.0706,0,3.9986,4.0042,4.0094,4.0135,4.0199,4.0231,4.0293,4.0325,4.0371,4.042,4.0436,4.0482,4.0519,4.057,4.0594,4.0662,4.0676,4.0693,4.07,4.0693,4.0691,4.0715,4.0711,4.0709,4.0708,4.0707,4.0707,0,4.003,4.0067,4.0142,4.0205,4.0222,4.0266,4.032,4.0361,4.0391,4.0453,4.0469,4.0516,4.0577,4.0612,4.0688,4.0705,4.0781,4.0784,4.0764,4.0767,4.0804,4.0801,4.0914,4.0931,4.0846,4.0846,4.0847,0,4.0071,4.0115,4.0183,4.0217,4.025,4.0304,4.0342,4.0375,4.0413,4.0478,4.0512,4.0575,4.0626,4.0723,4.0764,4.0823,4.0829,4.0864,4.0838,4.0831,4.0833,4.083,4.0836,4.0869,4.087,4.0871,4.0871,0,4.0141,4.0158,4.0211,4.0272,4.0316,4.0365,4.0414,4.0441,4.0483,4.0525,4.0589,4.0629,4.0708,4.0771,4.0834,4.0866,4.0877,4.0879,4.0892,4.0886,4.0874,4.0884,4.0779,4.0877,4.0876,4.0876,4.0875,4.0875,4.0186,4.0227,4.0283,4.0342,4.0383,4.0429,4.0472,4.0508,4.0562,4.063,4.0646,4.0714,4.0767,4.0853,4.0887,4.0941,4.0935,4.0952,4.0957,4.0961,4.0964,4.0864,4.0952,4.0952,4.0952,4.0952,4.0952,0,4.0259,4.0296,4.0351,4.042,4.0467,4.0473,4.0528,4.0568,4.0627,4.0676,4.0728,4.0802,4.0863,4.091,4.0973,4.1007,4.1013,4.1022,4.1021,4.1029,4.0964,4.0948,4.1016,4.1016,4.1016,4.1016,4.1016,4.1016,4.0303,4.0374,4.0397,4.0489,4.0525,4.0592,4.0624,4.0667,4.0707,4.0789,4.0841,4.0871,4.092,4.0987,4.1044,4.1056,4.1079,4.1088,4.1101,4.104,4.1033,4.1027,4.1012,4.1093,4.1093,4.1162,4.1163,4.1164]}]]